Location: Belfast
(54.5830°N, 5.9330°W)
Time: 02:49:25
(UTC+00:00)

ISS - Pass Details

Date: 30 January 2021
Orbit: 417 x 422 km, 51.6° (Epoch: 25 February)

Event Time Altitude Azimuth Distance (km) Brightness Sun altitude
Rises 19:21:11 0° 275° (W) 2,379 1.6 -20.5°
Reaches altitude 10° 19:23:24 10° 266° (W) 1,513 0.3 -20.8°
Maximum altitude 19:26:31 34° 199° (SSW) 716 -2.5 -21.2°
Enters shadow 19:26:42 34° 191° (SSW) 721 -2.5 -21.3°
